Stündliche Wetter Abasolo

Heute, 23 Juni, Mittwoch

Zeit Temperatur Niederschläge Wind Luftdruck Luftfeuchtigkeit
00:00 +19°C° 0 mm 1 m/S 621 mmHg 87%
01:00 +19°C° 0 mm 1 m/S 621 mmHg 88%
02:00 +19°C° 0 mm 1 m/S 620 mmHg 89%
03:00 +19°C° 0 mm 1 m/S 621 mmHg 89%
04:00 +19°C° 0 mm 1 m/S 621 mmHg 89%
05:00 +18°C° 0 mm 1 m/S 621 mmHg 89%
06:00 +20°C° 0.2 mm 1 m/S 622 mmHg 82%
07:00 +21°C° 0.2 mm 1 m/S 622 mmHg 74%
08:00 +23°C° 0.2 mm 1 m/S 623 mmHg 66%
09:00 +24°C° 0.3 mm 1 m/S 624 mmHg 59%
10:00 +26°C° 0.3 mm 2 m/S 624 mmHg 52%
11:00 +28°C° 0.3 mm 2 m/S 624 mmHg 45%
12:00 +28°C° 0.2 mm 2 m/S 624 mmHg 45%
13:00 +28°C° 0.2 mm 2 m/S 623 mmHg 45%
14:00 +28°C° 0.2 mm 2 m/S 622 mmHg 46%
15:00 +26°C° 3 mm 2 m/S 622 mmHg 56%
16:00 +24°C° 3 mm 3 m/S 621 mmHg 67%
17:00 +21°C° 3 mm 3 m/S 621 mmHg 78%
18:00 +20°C° 5.2 mm 2 m/S 621 mmHg 82%
19:00 +20°C° 5.2 mm 1 m/S 622 mmHg 87%
20:00 +18°C° 5.2 mm 1 m/S 622 mmHg 91%
21:00 +18°C° 0.2 mm 1 m/S 622 mmHg 91%
22:00 +19°C° 0.2 mm 1 m/S 623 mmHg 90%
23:00 +19°C° 0.2 mm 1 m/S 623 mmHg 90%

Morgen, 24 Juni, Donnerstag

Zeit Temperatur Niederschläge Wind Luftdruck Luftfeuchtigkeit
00:00 +19°C° 0 mm 1 m/S 622 mmHg 90%
01:00 +18°C° 0 mm 1 m/S 622 mmHg 90%
02:00 +16°C° 0 mm 0 m/S 621 mmHg 90%
03:00 +16°C° 0 mm 0 m/S 621 mmHg 91%
04:00 +16°C° 0 mm 0 m/S 622 mmHg 92%
05:00 +16°C° 0 mm 0 m/S 622 mmHg 92%
06:00 +17°C° 0 mm 0 m/S 622 mmHg 87%
07:00 +18°C° 0 mm 0 m/S 623 mmHg 81%
08:00 +21°C° 0 mm 1 m/S 623 mmHg 75%
09:00 +23°C° 0.1 mm 1 m/S 623 mmHg 66%
10:00 +25°C° 0.1 mm 1 m/S 624 mmHg 58%
11:00 +27°C° 0.1 mm 1 m/S 624 mmHg 49%
12:00 +28°C° 0.1 mm 1 m/S 623 mmHg 46%
13:00 +28°C° 0.1 mm 1 m/S 622 mmHg 43%
14:00 +29°C° 0.1 mm 1 m/S 622 mmHg 40%
15:00 +28°C° 0 mm 1 m/S 621 mmHg 42%
16:00 +28°C° 0 mm 1 m/S 621 mmHg 43%
17:00 +27°C° 0 mm 1 m/S 621 mmHg 44%
18:00 +26°C° 0.1 mm 1 m/S 620 mmHg 53%
19:00 +24°C° 0.1 mm 1 m/S 620 mmHg 61%
20:00 +20°C° 0.1 mm 0 m/S 620 mmHg 69%
21:00 +19°C° 0.7 mm 0 m/S 620 mmHg 73%
22:00 +18°C° 0.7 mm 0 m/S 620 mmHg 78%
23:00 +20°C° 0.7 mm 1 m/S 621 mmHg 83%

übermorgen, 25 Juni, Freitag

Zeit Temperatur Niederschläge Wind Luftdruck Luftfeuchtigkeit
00:00 +19°C° 0.2 mm 1 m/S 620 mmHg 85%
01:00 +19°C° 0.2 mm 1 m/S 620 mmHg 86%
02:00 +18°C° 0.2 mm 1 m/S 620 mmHg 88%
03:00 +18°C° 0 mm 1 m/S 620 mmHg 89%
04:00 +18°C° 0 mm 1 m/S 620 mmHg 91%
05:00 +16°C° 0 mm 1 m/S 620 mmHg 92%
06:00 +18°C° 0 mm 2 m/S 621 mmHg 84%
07:00 +20°C° 0 mm 2 m/S 621 mmHg 76%
08:00 +21°C° 0 mm 3 m/S 622 mmHg 67%
09:00 +24°C° 0 mm 3 m/S 622 mmHg 58%
10:00 +26°C° 0 mm 3 m/S 622 mmHg 49%
11:00 +28°C° 0 mm 3 m/S 622 mmHg 40%
12:00 +29°C° 0 mm 3 m/S 622 mmHg 36%
13:00 +30°C° 0 mm 3 m/S 621 mmHg 32%
14:00 +31°C° 0 mm 3 m/S 621 mmHg 28%
15:00 +32°C° 0 mm 4 m/S 620 mmHg 29%
16:00 +30°C° 0 mm 4 m/S 620 mmHg 29%
17:00 +29°C° 0 mm 4 m/S 619 mmHg 30%
18:00 +27°C° 0 mm 4 m/S 619 mmHg 40%
19:00 +25°C° 0 mm 4 m/S 619 mmHg 51%
20:00 +21°C° 0 mm 3 m/S 620 mmHg 61%
21:00 +20°C° 0 mm 3 m/S 620 mmHg 65%
22:00 +20°C° 0 mm 2 m/S 620 mmHg 69%
23:00 +19°C° 0 mm 2 m/S 620 mmHg 73%

26 Juni, Samstag

Zeit Temperatur Niederschläge Wind Luftdruck Luftfeuchtigkeit
00:00 +19°C° 0 mm 2 m/S 619 mmHg 76%
01:00 +19°C° 0 mm 1 m/S 619 mmHg 78%
02:00 +19°C° 0 mm 1 m/S 618 mmHg 81%
03:00 +18°C° 0 mm 1 m/S 618 mmHg 83%
04:00 +18°C° 0 mm 1 m/S 618 mmHg 84%
05:00 +18°C° 0 mm 1 m/S 618 mmHg 86%
06:00 +18°C° 0 mm 2 m/S 619 mmHg 77%
07:00 +20°C° 0 mm 2 m/S 620 mmHg 68%
08:00 +21°C° 0 mm 3 m/S 620 mmHg 59%
09:00 +24°C° 0 mm 3 m/S 620 mmHg 53%
10:00 +26°C° 0 mm 4 m/S 620 mmHg 46%
11:00 +28°C° 0 mm 4 m/S 620 mmHg 39%
12:00 +28°C° 0 mm 4 m/S 619 mmHg 37%
13:00 +29°C° 0 mm 4 m/S 619 mmHg 36%
14:00 +30°C° 0 mm 4 m/S 618 mmHg 34%
15:00 +29°C° 0 mm 4 m/S 618 mmHg 36%
16:00 +28°C° 0 mm 4 m/S 618 mmHg 39%
17:00 +27°C° 0 mm 4 m/S 617 mmHg 41%
18:00 +25°C° 0 mm 4 m/S 617 mmHg 49%
19:00 +24°C° 0 mm 3 m/S 618 mmHg 57%
20:00 +21°C° 0 mm 3 m/S 618 mmHg 65%
21:00 +20°C° 0 mm 3 m/S 618 mmHg 68%
22:00 +20°C° 0 mm 3 m/S 618 mmHg 71%
23:00 +19°C° 0 mm 3 m/S 618 mmHg 74%

27 Juni, Sonntag

Zeit Temperatur Niederschläge Wind Luftdruck Luftfeuchtigkeit
00:00 +18°C° 0 mm 2 m/S 617 mmHg 77%
01:00 +18°C° 0 mm 2 m/S 617 mmHg 79%
02:00 +17°C° 0 mm 2 m/S 616 mmHg 82%
03:00 +17°C° 0 mm 2 m/S 616 mmHg 82%
04:00 +17°C° 0 mm 2 m/S 616 mmHg 83%
05:00 +17°C° 0 mm 2 m/S 617 mmHg 83%
06:00 +18°C° 0 mm 2 m/S 617 mmHg 77%
07:00 +19°C° 0 mm 3 m/S 617 mmHg 71%
08:00 +21°C° 0 mm 4 m/S 618 mmHg 65%
09:00 +22°C° 0 mm 4 m/S 618 mmHg 58%
10:00 +25°C° 0 mm 5 m/S 618 mmHg 52%
11:00 +27°C° 0 mm 5 m/S 618 mmHg 45%
12:00 +26°C° 0.1 mm 5 m/S 617 mmHg 47%
13:00 +26°C° 0.1 mm 5 m/S 617 mmHg 48%
14:00 +26°C° 0.1 mm 4 m/S 616 mmHg 50%
15:00 +24°C° 0.7 mm 3 m/S 616 mmHg 60%
16:00 +21°C° 0.7 mm 2 m/S 616 mmHg 71%
17:00 +20°C° 0.7 mm 1 m/S 616 mmHg 81%
18:00 +20°C° 1.1 mm 1 m/S 616 mmHg 83%
19:00 +18°C° 1.1 mm 2 m/S 616 mmHg 85%
20:00 +18°C° 1.1 mm 2 m/S 617 mmHg 88%
21:00 +18°C° 0.3 mm 2 m/S 617 mmHg 87%
22:00 +18°C° 0.3 mm 2 m/S 617 mmHg 87%
23:00 +18°C° 0.3 mm 2 m/S 617 mmHg 86%

28 Juni, Montag

Zeit Temperatur Niederschläge Wind Luftdruck Luftfeuchtigkeit
00:00 +18°C° 0.2 mm 2 m/S 617 mmHg 86%
01:00 +18°C° 0.2 mm 2 m/S 617 mmHg 86%
02:00 +18°C° 0.2 mm 2 m/S 616 mmHg 85%
03:00 +18°C° 0.1 mm 2 m/S 617 mmHg 87%
04:00 +17°C° 0.1 mm 2 m/S 617 mmHg 88%
05:00 +17°C° 0.1 mm 2 m/S 617 mmHg 90%
06:00 +18°C° 0 mm 2 m/S 617 mmHg 86%
07:00 +18°C° 0 mm 2 m/S 618 mmHg 83%
08:00 +19°C° 0 mm 2 m/S 618 mmHg 79%
09:00 +20°C° 0.1 mm 2 m/S 619 mmHg 73%
10:00 +21°C° 0.1 mm 3 m/S 619 mmHg 66%
11:00 +24°C° 0.1 mm 3 m/S 619 mmHg 60%
12:00 +24°C° 0.3 mm 3 m/S 619 mmHg 59%
13:00 +24°C° 0.3 mm 3 m/S 618 mmHg 59%
14:00 +24°C° 0.3 mm 3 m/S 618 mmHg 59%
15:00 +22°C° 0.4 mm 3 m/S 618 mmHg 66%
16:00 +21°C° 0.4 mm 2 m/S 618 mmHg 73%
17:00 +19°C° 0.4 mm 2 m/S 618 mmHg 79%
18:00 +20°C° 0.3 mm 1 m/S 618 mmHg 82%
19:00 +20°C° 0.3 mm 1 m/S 619 mmHg 85%
20:00 +19°C° 0.3 mm 1 m/S 619 mmHg 87%
21:00 +19°C° 0.1 mm 1 m/S 619 mmHg 88%
22:00 +19°C° 0.1 mm 1 m/S 619 mmHg 88%
23:00 +19°C° 0.1 mm 1 m/S 619 mmHg 88%
Mehr zeigen

Wir brauchen deine Erlaubnis

Meteoprog und unser Service Anbieter werden persönliche Daten aufbewahren, so wie Cookies, Geräte Bezeichnung oder ähnliche Technologien von deinem Gerät und Prozess, so wie Persönliche Daten Inhalte und Werbungen, genauso wie social Media und den Verkehr zu analysieren.

  • Aufbewahrung und/oder Zugang zu deiner Geräte Informationen.

    Cookies, Geräte Bezeichnung oder andere Informationen, können aufbewahrt oder Zugang zu deinem Gerät erhalten, für den Grund, der oben angegeben wird.

  • Personalisierte Werbung und Inhalte, Messungen, Einblick in das Publikum und Produkt Entwicklung.

    Werbungen und Inhalte können personalisiert werden, basierend auf ein Profil. Mehr Daten können besser personalisierte Werbungen und Inhalte hinzufügen. Werbung und Inhalte können gezeigt und gemessen werden. Einblicke über das Publikum, welche die Werbung gesehen haben und den Inhalt, können abgeleitet werden. So wie Daten können genutzt werden, um es zu verbessern oder die Benutzer Erfahrung zu verbessern das System und die Software.

Wenn du “Ich stimme zu” klickst, erlaubst du uns, die Cookies zu benutzen die Geräte Bezeichnung, den Web oder ähnliche Technologien zu benutzen. Deine Settings, können in deinem Gerät bei deinem Browser geändert werden.

Für den bestimmten Zweck, berechtigten Interessen beruhen darauf, mehr als auf den Inhalt. Du kannst mehr darüber in unseren Privaten und Cookie Politik lesen.